Location: Sommers-Bausch Observatory
(40.0037°N, 105.2635°W)
Time: 07:10:47
(UTC-06:00)

Daily predictions for brighter satellites

Satellite Brightness Start Highest point End
(mag) Time Altitude Azimuth Time Altitude Azimuth Time Altitude Azimuth
Cosmos 371 Rocket 4.0 21:01:06 10° NNW 21:05:48 54° WSW 21:10:28 10° S
ALOS 3.3 21:03:07 10° S 21:07:37 47° W 21:12:08 10° NNW
Cosmos 2266 Rocket 4.2 21:03:22 10° SSE 21:09:29 55° E 21:15:30 10° NNE
Cosmos 2292 4.3 21:08:10 10° N 21:11:11 87° W 21:14:32 10° S
H-2A R/B 4.3 21:11:35 10° ENE 21:12:30 10° ENE 21:13:24 10° NE
Tiangong 1 2.1 21:09:57 10° SSW 21:12:36 26° SSE 21:15:15 10° E
Cosmos 1553 Rocket 4.2 21:07:38 10° N 21:14:02 80° W 21:20:20 10° S
Cosmos 1680 Rocket 3.9 21:09:09 10° N 21:14:14 48° ENE 21:19:19 10° SE
YAOGAN 6 4.3 21:13:06 10° ESE 21:15:43 19° ENE 21:18:19 10° NNE
AVUM R/B 3.2 21:13:27 10° SW 21:15:43 58° WNW 21:18:13 10° NNE
Cosmos 923 Rocket 4.0 21:13:40 10° NNW 21:18:53 70° ENE 21:24:03 10° SSE
Cosmos 1833 4.2 21:16:19 10° SSW 21:22:02 87° ESE 21:27:45 10° NNE
Cosmos 1939 Rocket 2.8 21:22:17 10° SSE 21:26:14 82° ENE 21:30:08 10° N
Cosmos 2333 Rocket 4.2 21:22:53 10° N 21:26:24 16° NE 21:29:54 10° E
DELTA 2 R/B(2) 3.1 21:25:25 10° WSW 21:26:58 49° SSE 21:29:04 10° E
ATLAS CENTAUR R/B 4.0 21:24:55 10° WNW 21:27:06 14° WSW 21:29:13 10° SW
H-2A R/B 2.2 21:23:17 10° SSE 21:27:49 89° ENE 21:32:22 10° NNW
USA 229 DEB 4.2 21:21:11 10° SW 21:28:04 68° NW 21:35:05 10° NNE
USA 229 4.2 21:21:17 10° SW 21:28:10 69° NW 21:35:11 10° NNE
Cosmos 1437 Rocket 3.0 21:24:44 10° NNW 21:28:33 70° W 21:32:22 10° S
Cosmos 773 Rocket 4.2 21:26:08 10° NNW 21:31:19 71° WSW 21:36:31 10° S
PSLV R/B 3.5 21:32:59 14° SSE 21:35:26 48° ENE 21:38:23 10° N
SPOT 5 2.9 21:32:35 11° SSE 21:37:01 66° ENE 21:41:48 10° N
MetOp-A 4.4 21:33:17 11° SSE 21:38:15 57° ENE 21:43:30 10° N
COSMOS 2428 3.2 21:33:22 10° NNW 21:38:50 46° ENE 21:43:18 15° SE
Cosmos 304 Rocket 3.8 21:38:47 10° NNW 21:43:37 85° WSW 21:47:58 13° SSE
ARGOS 3.9 21:41:02 14° SE 21:45:07 38° ENE 21:50:04 10° N
Cosmos 2219 Rocket 3.5 21:41:55 10° N 21:46:39 27° NE 21:50:35 13° ESE
NOSS 3-1 (A) 3.6 21:42:07 10° S 21:47:38 46° ESE 21:53:41 10° NE
Cosmos 1437 3.2 21:49:13 10° SSW 21:52:27 62° W 21:55:43 10° N
Nadezhda 2 Rocket 4.4 21:48:04 10° S 21:54:12 82° E 22:00:19 10° N
Cosmos 1328 3.9 21:51:59 10° S 21:55:55 78° W 21:59:54 10° N
Cosmos 1726 2.8 21:52:39 10° N 21:56:13 39° ENE 21:58:06 23° SE
Cosmos 2237 4.3 21:54:44 10° NNW 22:00:29 73° ENE 22:04:31 20° SSE
Envisat 3.7 22:00:06 10° S 22:05:00 51° W 22:09:58 10° NNW
Cosmos 292 Rocket 4.5 22:02:20 10° N 22:06:49 39° ENE 22:09:18 22° ESE
Delta 2 Rocket 3.3 22:04:41 10° WSW 22:08:04 40° S 22:09:00 32° SE
ATLAS 2AS CENTAUR R/B 3.7 22:05:37 17° SSE 22:10:09 31° ESE 22:16:48 10° NE
Cosmos 2219 3.5 22:05:01 10° SSW 22:10:45 71° WNW 22:16:31 10° NNE
Cosmos 1271 Rocket 3.3 22:10:18 10° N 22:13:57 41° ENE 22:15:19 29° SE
Cosmos 2151 4.4 22:13:59 10° SW 22:17:52 36° WNW 22:21:47 10° N
Cosmos 1703 3.7 22:16:40 31° SE 22:18:00 44° E 22:21:44 10° NNE
SL-14 R/B 3.2 22:15:32 19° S 22:18:15 87° E 22:22:16 10° N
Cosmos 2237 Rocket 3.3 22:13:16 10° N 22:18:23 33° ENE 22:21:31 20° ESE
Meteor 1-4 Rocket 2.9 22:14:59 10° N 22:18:39 50° ENE 22:19:52 34° SE
Cosmos 2333 4.2 22:13:02 10° NNW 22:18:47 76° ENE 22:22:12 26° SSE
Cosmos 2242 Rocket 3.7 22:17:45 10° N 22:22:12 62° E 22:24:14 31° SSE
Cosmos 2082 4.3 22:19:48 25° SSE 22:22:14 36° ESE 22:27:24 10° NE
Iridium 2 4.2 22:22:18 34° SE 22:23:20 43° E 22:27:01 10° NNE
Terra 2.7 22:22:18 25° ESE 22:24:18 36° ENE 22:28:37 10° N
Cosmos 1937 Rocket 3.5 22:21:29 18° S 22:25:19 62° ESE 22:30:27 10° NNE
ATLAS 3B R/B 4.1 22:20:02 10° NNW 22:25:58 28° NE 22:31:15 11° E
Lacrosse 4 Rocket 4.0 22:25:16 10° NNE 22:27:11 13° NE 22:29:08 10° ENE
Cosmos 2298 Rocket 4.2 22:22:00 10° SSW 22:27:19 77° WNW 22:32:40 10° NNE
Sich 1 3.1 22:25:43 19° S 22:28:52 82° W 22:33:17 10° N
Meteor 1-27 4.4 22:23:23 10° NNW 22:29:04 73° W 22:32:54 21° S
Cosmos 2360 Rocket 3.6 22:24:41 10° NW 22:29:38 32° WSW 22:34:09 12° SSW
CARTOSAT-1 4.3 22:28:15 30° ESE 22:29:42 39° ENE 22:33:45 10° N
USA 245 3.0 22:31:03 40° SW 22:31:20 43° WSW 22:33:36 10° NNW
NOAA 11 4.2 22:29:08 25° SSE 22:32:25 86° WSW 22:37:54 10° NNW
Cosmos 2058 4.1 22:28:41 10° SSW 22:32:33 40° WNW 22:36:27 10° N
Cosmos 1633 Rocket 3.1 22:29:42 20° SSW 22:32:39 79° W 22:37:03 10° N
NOSS 3-1 (C) 3.8 22:28:22 10° SW 22:34:11 65° NW 22:40:40 10° NNE
Cosmos 1626 2.9 22:35:44 35° E 22:35:54 35° E 22:39:21 10° NNE
Cosmos 990 Rocket 4.1 22:33:44 29° SSE 22:36:06 54° ESE 22:41:07 10° NNE
DELTA 2 R/B (1) 4.4 22:32:11 10° W 22:37:12 35° SSW 22:38:52 29° S
DELTA 2 DEB (DPAF) 4.1 22:36:20 36° SSE 22:38:09 77° ENE 22:42:38 10° N
OAO 2 Rocket 3.7 22:35:49 10° WSW 22:40:50 43° S 22:42:20 35° SE
SL-08 RB Rocket 3.9 22:44:58 32° S 22:46:56 64° W 22:51:25 10° NNW
CZ-4 R/B 4.3 22:43:50 10° N 22:48:42 61° WNW 22:52:31 16° SSW
Tiangong 1 1.1 22:45:55 10° W 22:49:01 73° NNW 22:49:21 64° NE
YAOGAN 6 4.5 22:47:15 17° SW 22:49:08 25° W 22:52:10 10° NW
COSMOS 2455 4.0 22:44:50 10° NNW 22:50:12 32° NE 22:53:21 20° E
H-2A R/B 2.1 22:48:40 36° SSE 22:50:55 77° ENE 22:56:22 10° N
Cosmos 1300 4.4 22:47:35 10° NNW 22:50:56 29° W 22:52:56 18° SW
Cosmos 2227 Rocket 2.1 22:53:14 28° S 22:56:20 73° ESE 23:02:00 10° NNE
IGS 5A 3.3 23:05:39 61° SSE 23:06:21 89° E 23:10:33 10° NNW
Cosmos 192 4.4 23:03:49 10° NNW 23:08:43 65° ENE 23:09:49 50° SE
SeaSat 1 4.0 23:09:19 20° E 23:11:15 25° NE 23:15:16 10° N
Cosmos 2333 Rocket 2.2 23:05:38 10° NNW 23:11:25 84° WSW 23:13:18 45° SSE
SL-16 R/B 3.1 23:06:37 10° N 23:11:56 39° ENE 23:13:53 30° E
Cosmos 1241 Rocket 4.4 23:06:43 13° SSW 23:12:23 83° WNW 23:18:41 10° NNE
Cosmos 1455 2.1 23:09:50 10° N 23:13:38 75° W 23:13:51 72° SW
Cosmos 1125 Rocket 3.7 23:13:45 48° SE 23:14:27 51° ESE 23:19:36 10° NNE
SAR-Lupe-2 3.6 23:14:58 74° W 23:14:58 74° W 23:18:31 10° NNW
Okean 1-7 4.2 23:18:41 10° NNE 23:22:21 28° ENE 23:22:21 28° ENE
COSMOS 2428 4.4 23:18:16 10° NW 23:22:45 24° WSW 23:25:20 18° SW
Cosmos 2297 Rocket 2.1 23:21:13 40° SSW 23:23:22 85° ESE 23:29:03 10° NNE
Nadezhda 1 Rocket 4.3 23:18:19 10° NNW 23:24:17 60° W 23:26:55 34° SSW
Cosmos 1703 Rocket 3.7 23:25:24 10° N 23:29:43 57° E 23:29:46 57° E
Cosmos 2219 Rocket 2.9 23:25:29 10° NW 23:30:43 42° WSW 23:32:19 34° SW
Cosmos 1869 3.6 23:27:42 10° NNW 23:31:41 56° W 23:31:52 55° WSW
Cosmos 372 Rocket 4.3 23:39:23 49° ESE 23:39:23 49° ESE 23:44:26 10° NNE
Cosmos 2221 Rocket 3.6 23:35:13 10° N 23:39:47 72° E 23:39:53 71° E
ERBS 3.9 23:38:38 26° W 23:39:55 36° NW 23:43:11 10° NNE
Cosmos 1709 Rocket 3.9 23:42:20 44° SSW 23:44:22 78° W 23:50:31 10° N
Meteor 1-26 Rocket 4.3 23:42:43 10° N 23:48:19 63° E 23:49:14 55° ESE
Cosmos 1980 4.4 23:44:39 10° NW 23:49:55 41° WSW 23:51:01 37° SW
